Time,TemperatureF,DewpointF,PressureIn,WindDirection,WindDirectionDegrees,WindSpeedMPH,WindSpeedGustMPH,Humidity,HourlyPrecipIn,Conditions,Clouds,dailyrainin,SolarRadiationWatts/m^2,SoftwareType,DateUTC
2013-04-01 00:05:00,51.9,50.2,30.08,NW,313,0.0,1.0,94,0.18,,,0.18,0000,Weather View 32 v70,2013-04-01 07:05:00,
2013-04-01 00:14:00,51.9,50.2,30.08,NW,313,0.0,1.0,94,0.18,,,0.18,0000,Weather View 32 v70,2013-04-01 07:14:00,
2013-04-01 00:20:00,51.8,50.1,30.08,NW,313,0.0,1.0,94,0.18,,,0.18,0000,Weather View 32 v70,2013-04-01 07:20:00,
2013-04-01 00:25:00,51.8,50.1,30.08,NW,313,0.0,1.0,94,0.18,,,0.18,0000,Weather View 32 v70,2013-04-01 07:25:00,
2013-04-01 00:30:00,51.7,50.0,30.08,NW,313,0.0,1.0,94,0.18,,,0.18,0000,Weather View 32 v70,2013-04-01 07:30:00,
2013-04-01 00:35:00,51.8,50.1,30.08,NW,313,0.0,1.0,94,0.18,,,0.18,0000,Weather View 32 v70,2013-04-01 07:35:00,
2013-04-01 00:40:00,51.8,50.1,30.08,NW,313,0.0,1.0,94,0.18,,,0.18,0000,Weather View 32 v70,2013-04-01 07:40:00,
2013-04-01 00:45:00,51.9,50.2,30.08,NW,313,0.0,1.0,94,0.18,,,0.18,0000,Weather View 32 v70,2013-04-01 07:45:00,
2013-04-01 00:50:00,51.7,50.0,30.08,NW,313,0.0,1.0,94,0.18,,,0.18,0000,Weather View 32 v70,2013-04-01 07:50:00,
2013-04-01 00:55:00,51.7,50.0,30.08,NW,313,0.0,1.0,94,0.18,,,0.18,0000,Weather View 32 v70,2013-04-01 07:55:00,
2013-04-01 01:00:00,51.7,50.0,30.08,NW,313,0.0,1.0,94,0.18,,,0.18,0000,Weather View 32 v70,2013-04-01 08:00:00,
2013-04-01 01:05:00,51.7,50.0,30.08,NW,313,0.0,1.0,94,0.00,,,0.18,0000,Weather View 32 v70,2013-04-01 08:05:00,
2013-04-01 01:10:00,51.6,49.9,30.08,NW,313,0.0,1.0,94,0.00,,,0.18,0000,Weather View 32 v70,2013-04-01 08:10:00,
2013-04-01 01:15:00,51.6,49.9,30.08,NW,313,0.0,1.0,94,0.00,,,0.18,0000,Weather View 32 v70,2013-04-01 08:15:00,
2013-04-01 01:20:00,51.5,49.8,30.08,NW,313,0.0,1.0,94,0.00,,,0.18,0000,Weather View 32 v70,2013-04-01 08:20:00,
2013-04-01 01:25:00,51.5,49.8,30.08,NW,313,0.0,1.0,94,0.00,,,0.18,0000,Weather View 32 v70,2013-04-01 08:25:00,
2013-04-01 01:30:00,51.3,49.6,30.08,NW,313,0.0,1.0,94,0.00,,,0.18,0000,Weather View 32 v70,2013-04-01 08:30:00,
2013-04-01 01:35:00,51.4,49.7,30.08,NW,313,0.0,1.0,94,0.00,,,0.18,0000,Weather View 32 v70,2013-04-01 08:35:00,
2013-04-01 01:40:00,51.3,49.6,30.08,NW,313,0.0,1.0,94,0.00,,,0.18,0000,Weather View 32 v70,2013-04-01 08:40:00,
2013-04-01 01:45:00,51.3,49.6,30.08,NW,313,0.0,1.0,94,0.00,,,0.18,0000,Weather View 32 v70,2013-04-01 08:45:00,
2013-04-01 01:50:00,51.2,49.5,30.08,NW,313,0.0,1.0,94,0.00,,,0.18,0000,Weather View 32 v70,2013-04-01 08:50:00,
2013-04-01 01:55:00,50.7,49.0,30.08,NW,313,0.0,1.0,94,0.00,,,0.18,0000,Weather View 32 v70,2013-04-01 08:55:00,
2013-04-01 02:00:00,50.3,48.6,30.08,NW,313,0.0,1.0,94,0.00,,,0.18,0000,Weather View 32 v70,2013-04-01 09:00:00,
2013-04-01 02:05:00,49.7,48.0,30.08,NW,313,0.0,1.0,94,0.00,,,0.18,0000,Weather View 32 v70,2013-04-01 09:05:00,
2013-04-01 02:10:00,49.4,47.7,30.08,NW,313,0.0,1.0,94,0.00,,,0.18,0000,Weather View 32 v70,2013-04-01 09:10:00,
2013-04-01 02:15:00,49.2,47.5,30.08,NW,313,0.0,1.0,94,0.00,,,0.18,0000,Weather View 32 v70,2013-04-01 09:15:00,
2013-04-01 02:20:00,49.0,47.3,30.07,NW,313,0.0,1.0,94,0.00,,,0.18,0000,Weather View 32 v70,2013-04-01 09:20:00,
2013-04-01 02:25:00,48.7,47.0,30.07,NW,313,0.0,1.0,94,0.00,,,0.18,0000,Weather View 32 v70,2013-04-01 09:25:00,
2013-04-01 02:30:00,48.5,46.8,30.08,NW,313,0.0,1.0,94,0.00,,,0.18,0000,Weather View 32 v70,2013-04-01 09:30:00,
2013-04-01 02:35:00,48.5,46.8,30.08,NW,313,0.0,1.0,94,0.00,,,0.18,0000,Weather View 32 v70,2013-04-01 09:35:00,
2013-04-01 02:40:00,48.3,46.7,30.08,NW,313,0.0,1.0,94,0.00,,,0.18,0000,Weather View 32 v70,2013-04-01 09:40:00,
2013-04-01 02:45:00,48.3,46.7,30.07,NW,313,0.0,1.0,94,0.00,,,0.18,0000,Weather View 32 v70,2013-04-01 09:45:00,
2013-04-01 02:50:00,48.3,46.7,30.08,NW,313,0.0,1.0,94,0.00,,,0.18,0000,Weather View 32 v70,2013-04-01 09:50:00,
2013-04-01 02:55:00,48.3,46.7,30.07,NW,313,0.0,1.0,94,0.00,,,0.18,0000,Weather View 32 v70,2013-04-01 09:55:00,
2013-04-01 03:00:00,48.2,46.6,30.08,NW,313,0.0,1.0,94,0.00,,,0.18,0000,Weather View 32 v70,2013-04-01 10:00:00,
2013-04-01 03:05:00,48.2,46.6,30.08,NW,313,0.0,1.0,94,0.00,,,0.18,0000,Weather View 32 v70,2013-04-01 10:05:00,
2013-04-01 03:10:00,48.3,46.7,30.07,NW,313,0.0,1.0,94,0.00,,,0.18,0000,Weather View 32 v70,2013-04-01 10:10:00,
2013-04-01 03:15:00,48.6,46.9,30.07,NW,313,0.0,1.0,94,0.00,,,0.18,0000,Weather View 32 v70,2013-04-01 10:15:00,
2013-04-01 03:20:00,48.7,47.0,30.07,NW,313,0.0,1.0,94,0.00,,,0.18,0000,Weather View 32 v70,2013-04-01 10:20:00,
2013-04-01 03:25:00,48.7,47.0,30.07,NW,313,0.0,1.0,94,0.00,,,0.18,0000,Weather View 32 v70,2013-04-01 10:25:00,
2013-04-01 03:30:00,48.6,46.9,30.07,NW,313,0.0,0.0,94,0.00,,,0.18,0000,Weather View 32 v70,2013-04-01 10:30:00,
2013-04-01 03:35:00,48.8,47.1,30.07,NW,313,0.0,0.0,94,0.00,,,0.18,0000,Weather View 32 v70,2013-04-01 10:35:00,
2013-04-01 03:40:00,48.9,47.2,30.07,NW,313,0.0,0.0,94,0.00,,,0.18,0000,Weather View 32 v70,2013-04-01 10:40:00,
2013-04-01 03:45:00,48.9,47.2,30.07,NW,313,0.0,0.0,94,0.00,,,0.18,0000,Weather View 32 v70,2013-04-01 10:45:00,
2013-04-01 03:50:00,48.8,47.1,30.07,NW,313,0.0,0.0,94,0.00,,,0.18,0000,Weather View 32 v70,2013-04-01 10:50:00,
2013-04-01 03:55:00,48.8,47.1,30.07,NW,313,0.0,0.0,94,0.00,,,0.18,0000,Weather View 32 v70,2013-04-01 10:55:00,
2013-04-01 04:00:00,48.9,47.2,30.07,NW,313,0.0,0.0,94,0.00,,,0.18,0000,Weather View 32 v70,2013-04-01 11:00:00,
2013-04-01 04:05:00,48.8,47.1,30.07,NW,313,0.0,0.0,94,0.00,,,0.18,0000,Weather View 32 v70,2013-04-01 11:05:00,
2013-04-01 04:10:00,48.9,47.2,30.07,NW,313,0.0,0.0,94,0.00,,,0.18,0000,Weather View 32 v70,2013-04-01 11:10:00,
2013-04-01 04:15:00,49.0,47.3,30.07,NW,313,0.0,0.0,94,0.00,,,0.18,0000,Weather View 32 v70,2013-04-01 11:15:00,
2013-04-01 04:20:00,48.9,47.2,30.07,NW,313,0.0,0.0,94,0.00,,,0.18,0000,Weather View 32 v70,2013-04-01 11:20:00,
2013-04-01 04:25:00,48.8,46.9,30.07,NW,313,0.0,1.0,93,0.00,,,0.18,0000,Weather View 32 v70,2013-04-01 11:25:00,
2013-04-01 04:30:00,48.7,46.8,30.07,NW,313,0.0,1.0,93,0.00,,,0.18,0000,Weather View 32 v70,2013-04-01 11:30:00,
2013-04-01 04:35:00,48.7,46.8,30.07,NW,313,0.0,1.0,93,0.00,,,0.18,0000,Weather View 32 v70,2013-04-01 11:35:00,
2013-04-01 04:40:00,48.6,46.7,30.07,NW,313,0.0,1.0,93,0.00,,,0.18,0000,Weather View 32 v70,2013-04-01 11:40:00,
2013-04-01 04:45:00,48.6,46.7,30.07,NW,313,0.0,1.0,93,0.00,,,0.19,0000,Weather View 32 v70,2013-04-01 11:45:00,
2013-04-01 04:50:00,48.6,46.9,30.07,NW,313,0.0,1.0,94,0.01,,,0.19,0000,Weather View 32 v70,2013-04-01 11:50:00,
2013-04-01 04:55:00,48.7,47.0,30.07,NW,313,0.0,1.0,94,0.01,,,0.19,0000,Weather View 32 v70,2013-04-01 11:55:00,
2013-04-01 05:00:00,48.7,47.0,30.08,NW,313,0.0,1.0,94,0.01,,,0.19,0000,Weather View 32 v70,2013-04-01 12:00:00,
2013-04-01 05:05:00,48.7,47.0,30.08,NW,313,0.0,1.0,94,0.01,,,0.19,0000,Weather View 32 v70,2013-04-01 12:05:00,
2013-04-01 05:10:00,48.7,47.0,30.08,NW,313,0.0,1.0,94,0.01,,,0.19,0000,Weather View 32 v70,2013-04-01 12:10:00,
2013-04-01 05:15:00,48.8,47.1,30.08,NW,313,0.0,1.0,94,0.01,,,0.19,0000,Weather View 32 v70,2013-04-01 12:15:00,
2013-04-01 05:20:00,49.0,47.3,30.08,NW,313,0.0,1.0,94,0.01,,,0.19,0000,Weather View 32 v70,2013-04-01 12:20:00,
2013-04-01 05:25:00,49.0,47.3,30.08,NW,313,0.0,0.0,94,0.01,,,0.19,0000,Weather View 32 v70,2013-04-01 12:25:00,
2013-04-01 05:30:00,49.1,47.4,30.08,NW,313,0.0,0.0,94,0.01,,,0.19,0000,Weather View 32 v70,2013-04-01 12:30:00,
2013-04-01 05:35:00,49.2,47.5,30.08,NW,313,0.0,0.0,94,0.01,,,0.19,0000,Weather View 32 v70,2013-04-01 12:35:00,
2013-04-01 05:40:00,49.1,47.4,30.08,NW,313,0.0,0.0,94,0.01,,,0.19,0000,Weather View 32 v70,2013-04-01 12:40:00,
2013-04-01 05:45:00,49.0,47.3,30.08,NW,313,0.0,0.0,94,0.01,,,0.19,0000,Weather View 32 v70,2013-04-01 12:45:00,
2013-04-01 05:50:00,49.0,47.3,30.08,NW,313,0.0,0.0,94,0.00,,,0.19,0000,Weather View 32 v70,2013-04-01 12:50:00,
2013-04-01 05:55:00,49.0,47.3,30.08,NW,313,0.0,0.0,94,0.00,,,0.19,0000,Weather View 32 v70,2013-04-01 12:55:00,
2013-04-01 06:00:00,49.0,47.3,30.08,NW,313,0.0,0.0,94,0.00,,,0.19,0000,Weather View 32 v70,2013-04-01 13:00:00,
2013-04-01 06:05:00,49.0,47.3,30.08,NW,313,0.0,0.0,94,0.00,,,0.19,0000,Weather View 32 v70,2013-04-01 13:05:00,
2013-04-01 06:10:00,48.9,47.2,30.08,NW,313,0.0,0.0,94,0.00,,,0.19,0000,Weather View 32 v70,2013-04-01 13:10:00,
2013-04-01 06:15:00,49.0,47.3,30.09,NW,313,0.0,0.0,94,0.00,,,0.19,0000,Weather View 32 v70,2013-04-01 13:15:00,
2013-04-01 06:20:00,49.1,47.4,30.09,NW,313,0.0,0.0,94,0.00,,,0.19,0000,Weather View 32 v70,2013-04-01 13:20:00,
2013-04-01 06:25:00,49.1,47.4,30.09,NW,313,0.0,0.0,94,0.00,,,0.19,0000,Weather View 32 v70,2013-04-01 13:25:00,
2013-04-01 06:30:00,49.2,47.5,30.09,NW,313,0.0,0.0,94,0.00,,,0.19,0000,Weather View 32 v70,2013-04-01 13:30:00,
2013-04-01 06:35:00,49.1,47.4,30.09,NW,313,0.0,0.0,94,0.00,,,0.19,0000,Weather View 32 v70,2013-04-01 13:35:00,
2013-04-01 06:40:00,49.0,47.3,30.10,NW,313,0.0,0.0,94,0.00,,,0.19,0000,Weather View 32 v70,2013-04-01 13:40:00,
2013-04-01 06:45:00,48.9,47.2,30.10,NW,313,0.0,0.0,94,0.00,,,0.19,0000,Weather View 32 v70,2013-04-01 13:45:00,
2013-04-01 06:50:00,49.0,47.3,30.10,NW,313,0.0,0.0,94,0.00,,,0.19,0005,Weather View 32 v70,2013-04-01 13:50:00,
2013-04-01 06:55:00,49.1,47.4,30.10,NW,313,0.0,0.0,94,0.00,,,0.19,0007,Weather View 32 v70,2013-04-01 13:55:00,
2013-04-01 07:00:00,49.0,47.3,30.11,NW,313,0.0,0.0,94,0.00,,,0.19,0009,Weather View 32 v70,2013-04-01 14:00:00,
2013-04-01 07:05:00,48.7,47.0,30.11,NW,313,0.0,0.0,94,0.00,,,0.19,0014,Weather View 32 v70,2013-04-01 14:05:00,
2013-04-01 07:10:00,48.7,47.0,30.11,NW,313,0.0,0.0,94,0.00,,,0.19,0025,Weather View 32 v70,2013-04-01 14:10:00,
2013-04-01 07:15:00,48.8,47.1,30.11,NW,313,0.0,0.0,94,0.00,,,0.19,0028,Weather View 32 v70,2013-04-01 14:15:00,
2013-04-01 07:20:00,48.5,46.8,30.12,NW,313,0.0,0.0,94,0.00,,,0.19,0079,Weather View 32 v70,2013-04-01 14:20:00,
2013-04-01 07:25:00,49.4,47.7,30.12,NW,313,0.0,0.0,94,0.00,,,0.19,0120,Weather View 32 v70,2013-04-01 14:25:00,
2013-04-01 07:30:00,50.0,48.3,30.11,NW,313,0.0,0.0,94,0.00,,,0.19,0054,Weather View 32 v70,2013-04-01 14:30:00,
2013-04-01 07:35:00,49.5,47.8,30.12,NW,313,0.0,0.0,94,0.00,,,0.19,0134,Weather View 32 v70,2013-04-01 14:35:00,
2013-04-01 07:40:00,49.6,47.9,30.12,NW,313,0.0,0.0,94,0.00,,,0.19,0167,Weather View 32 v70,2013-04-01 14:40:00,
2013-04-01 07:45:00,50.2,48.5,30.12,NW,313,0.0,0.0,94,0.00,,,0.19,0176,Weather View 32 v70,2013-04-01 14:45:00,
2013-04-01 07:50:00,50.5,48.8,30.12,NW,313,0.0,1.0,94,0.00,,,0.19,0202,Weather View 32 v70,2013-04-01 14:50:00,
2013-04-01 07:55:00,50.3,48.6,30.12,NW,313,0.0,1.0,94,0.00,,,0.19,0221,Weather View 32 v70,2013-04-01 14:55:00,
2013-04-01 08:00:00,50.6,48.9,30.13,NW,313,0.0,1.0,94,0.00,,,0.19,0236,Weather View 32 v70,2013-04-01 15:00:00,
2013-04-01 08:05:00,50.7,48.7,30.13,NW,313,0.0,1.0,93,0.00,,,0.19,0255,Weather View 32 v70,2013-04-01 15:05:00,
2013-04-01 08:10:00,51.1,49.1,30.13,NW,313,0.0,1.0,93,0.00,,,0.19,0271,Weather View 32 v70,2013-04-01 15:10:00,
2013-04-01 08:15:00,51.5,49.2,30.13,NW,313,0.0,1.0,92,0.00,,,0.19,0288,Weather View 32 v70,2013-04-01 15:15:00,
2013-04-01 08:20:00,51.8,49.5,30.13,NW,313,0.0,2.0,92,0.00,,,0.19,0309,Weather View 32 v70,2013-04-01 15:20:00,
2013-04-01 08:25:00,52.0,49.2,30.13,NW,313,0.0,2.0,90,0.00,,,0.19,0329,Weather View 32 v70,2013-04-01 15:25:00,
2013-04-01 08:30:00,52.1,48.3,30.14,NW,313,0.0,2.0,87,0.00,,,0.19,0345,Weather View 32 v70,2013-04-01 15:30:00,
2013-04-01 08:35:00,53.0,49.8,30.14,NW,313,0.0,2.0,89,0.00,,,0.19,0360,Weather View 32 v70,2013-04-01 15:35:00,
2013-04-01 08:40:00,53.0,48.9,30.13,NW,313,0.0,2.0,86,0.00,,,0.19,0383,Weather View 32 v70,2013-04-01 15:40:00,
2013-04-01 08:45:00,53.7,49.9,30.13,NW,313,0.0,2.0,87,0.00,,,0.19,0396,Weather View 32 v70,2013-04-01 15:45:00,
2013-04-01 08:51:00,53.4,48.4,30.13,West,268,0.0,2.0,83,0.00,,,0.19,0415,Weather View 32 v70,2013-04-01 15:51:00,
2013-04-01 08:57:00,54.1,49.4,30.13,WSW,245,0.0,2.0,84,0.00,,,0.19,0418,Weather View 32 v70,2013-04-01 15:57:00,
2013-04-01 09:02:00,54.6,49.5,30.13,WSW,245,0.0,2.0,83,0.00,,,0.19,0429,Weather View 32 v70,2013-04-01 16:02:00,
2013-04-01 09:07:00,55.0,49.3,30.13,WSW,244,0.0,2.0,81,0.00,,,0.19,0468,Weather View 32 v70,2013-04-01 16:07:00,
2013-04-01 09:12:00,55.2,48.8,30.13,SE,132,0.0,4.0,79,0.00,,,0.19,0480,Weather View 32 v70,2013-04-01 16:12:00,
2013-04-01 09:17:00,55.5,49.4,30.13,ESE,122,2.0,4.0,80,0.00,,,0.19,0487,Weather View 32 v70,2013-04-01 16:17:00,
2013-04-01 09:22:00,55.5,49.4,30.12,ESE,111,1.0,5.0,80,0.00,,,0.19,0496,Weather View 32 v70,2013-04-01 16:22:00,
2013-04-01 09:27:00,56.1,49.7,30.13,ESE,102,0.0,5.0,79,0.00,,,0.19,0515,Weather View 32 v70,2013-04-01 16:27:00,
2013-04-01 09:32:00,56.3,49.9,30.13,ESE,120,0.0,5.0,79,0.00,,,0.19,0527,Weather View 32 v70,2013-04-01 16:32:00,
2013-04-01 09:37:00,56.2,49.1,30.13,ESE,120,0.0,5.0,77,0.00,,,0.19,0547,Weather View 32 v70,2013-04-01 16:37:00,
2013-04-01 09:42:00,56.4,48.2,30.13,ESE,120,0.0,5.0,74,0.00,,,0.19,0561,Weather View 32 v70,2013-04-01 16:42:00,
2013-04-01 09:47:00,56.9,49.4,30.13,ESE,120,0.0,5.0,76,0.00,,,0.19,0578,Weather View 32 v70,2013-04-01 16:47:00,
2013-04-01 09:52:00,58.6,50.0,30.13,ESE,119,1.0,5.0,73,0.00,,,0.19,0596,Weather View 32 v70,2013-04-01 16:52:00,
2013-04-01 09:57:00,59.0,49.6,30.13,ESE,119,0.0,5.0,71,0.00,,,0.19,0615,Weather View 32 v70,2013-04-01 16:57:00,
2013-04-01 10:02:00,58.4,49.8,30.13,ESE,119,0.0,5.0,73,0.00,,,0.19,0636,Weather View 32 v70,2013-04-01 17:02:00,
2013-04-01 10:07:00,57.8,49.2,30.13,ESE,119,0.0,5.0,73,0.00,,,0.19,0619,Weather View 32 v70,2013-04-01 17:07:00,
2013-04-01 10:12:00,57.3,48.7,30.14,ESE,119,0.0,5.0,73,0.00,,,0.19,0123,Weather View 32 v70,2013-04-01 17:12:00,
2013-04-01 10:17:00,57.9,49.6,30.13,ESE,119,0.0,5.0,74,0.00,,,0.19,0686,Weather View 32 v70,2013-04-01 17:17:00,
2013-04-01 10:22:00,59.0,49.6,30.14,ESE,119,0.0,4.0,71,0.00,,,0.19,0714,Weather View 32 v70,2013-04-01 17:22:00,
2013-04-01 10:27:00,59.5,49.7,30.14,WNW,282,0.0,4.0,70,0.00,,,0.19,0703,Weather View 32 v70,2013-04-01 17:27:00,
2013-04-01 10:32:00,60.3,51.2,30.14,WNW,303,0.0,4.0,72,0.00,,,0.19,0686,Weather View 32 v70,2013-04-01 17:32:00,
2013-04-01 10:37:00,60.5,50.6,30.14,NNW,329,1.0,4.0,70,0.00,,,0.19,0742,Weather View 32 v70,2013-04-01 17:37:00,
2013-04-01 10:42:00,61.0,51.9,30.14,NNW,329,0.0,2.0,72,0.00,,,0.19,0737,Weather View 32 v70,2013-04-01 17:42:00,
2013-04-01 10:47:00,60.9,50.6,30.14,NE,46,0.0,2.0,69,0.00,,,0.19,0779,Weather View 32 v70,2013-04-01 17:47:00,
2013-04-01 10:52:00,61.2,52.5,30.14,WNW,302,0.0,4.0,73,0.00,,,0.19,0780,Weather View 32 v70,2013-04-01 17:52:00,
2013-04-01 10:57:00,61.1,50.8,30.14,NW,324,0.0,4.0,69,0.00,,,0.19,0800,Weather View 32 v70,2013-04-01 17:57:00,
2013-04-01 11:02:00,61.4,51.1,30.14,NW,325,0.0,4.0,69,0.00,,,0.19,0805,Weather View 32 v70,2013-04-01 18:02:00,
2013-04-01 11:07:00,61.6,49.7,30.14,NW,325,0.0,4.0,65,0.00,,,0.19,0840,Weather View 32 v70,2013-04-01 18:07:00,
2013-04-01 11:12:00,61.6,50.9,30.14,NW,311,0.0,4.0,68,0.00,,,0.19,0847,Weather View 32 v70,2013-04-01 18:12:00,
2013-04-01 11:17:00,62.1,50.2,30.14,NNW,334,0.0,5.0,65,0.00,,,0.19,0905,Weather View 32 v70,2013-04-01 18:17:00,
2013-04-01 11:22:00,62.4,49.6,30.14,WNW,287,0.0,5.0,63,0.00,,,0.19,0847,Weather View 32 v70,2013-04-01 18:22:00,
2013-04-01 11:27:00,62.5,50.5,30.14,WNW,286,0.0,5.0,65,0.00,,,0.19,0965,Weather View 32 v70,2013-04-01 18:27:00,
2013-04-01 11:32:00,62.1,49.7,30.13,West,273,0.0,5.0,64,0.00,,,0.19,0223,Weather View 32 v70,2013-04-01 18:32:00,
2013-04-01 11:37:00,61.9,52.0,30.13,WSW,251,0.0,5.0,70,0.00,,,0.19,1021,Weather View 32 v70,2013-04-01 18:37:00,
2013-04-01 11:42:00,63.3,52.1,30.13,North,360,0.0,5.0,67,0.00,,,0.19,1023,Weather View 32 v70,2013-04-01 18:42:00,
2013-04-01 11:47:00,62.2,51.9,30.13,NW,325,0.0,5.0,69,0.00,,,0.19,0264,Weather View 32 v70,2013-04-01 18:47:00,
2013-04-01 11:52:00,63.5,52.7,30.13,NW,326,0.0,5.0,68,0.00,,,0.19,1034,Weather View 32 v70,2013-04-01 18:52:00,
2013-04-01 11:58:00,64.3,53.5,30.13,WNW,286,0.0,5.0,68,0.00,,,0.19,1125,Weather View 32 v70,2013-04-01 18:58:00,
2013-04-01 12:03:00,64.9,52.4,30.13,NW,324,0.0,5.0,64,0.00,,,0.19,1102,Weather View 32 v70,2013-04-01 19:03:00,
2013-04-01 12:08:00,63.2,51.2,30.13,WNW,283,0.0,10.0,65,0.00,,,0.19,0557,Weather View 32 v70,2013-04-01 19:08:00,
2013-04-01 12:13:00,62.9,51.7,30.13,NW,306,0.0,10.0,67,0.00,,,0.19,0332,Weather View 32 v70,2013-04-01 19:13:00,
2013-04-01 12:18:00,62.2,52.3,30.13,NW,317,0.0,10.0,70,0.00,,,0.19,0306,Weather View 32 v70,2013-04-01 19:18:00,
2013-04-01 12:23:00,61.9,51.6,30.13,North,5,0.0,10.0,69,0.00,,,0.19,0330,Weather View 32 v70,2013-04-01 19:23:00,
2013-04-01 12:28:00,61.6,52.1,30.13,NNW,329,0.0,10.0,71,0.00,,,0.19,0202,Weather View 32 v70,2013-04-01 19:28:00,
2013-04-01 12:33:00,60.5,51.0,30.13,NW,309,0.0,10.0,71,0.00,,,0.19,0239,Weather View 32 v70,2013-04-01 19:33:00,
2013-04-01 12:38:00,60.1,51.4,30.13,WNW,301,0.0,10.0,73,0.00,,,0.19,0251,Weather View 32 v70,2013-04-01 19:38:00,
2013-04-01 12:43:00,60.3,51.6,30.12,NW,307,0.0,10.0,73,0.00,,,0.19,0311,Weather View 32 v70,2013-04-01 19:43:00,
2013-04-01 12:48:00,60.4,51.3,30.12,North,350,0.0,10.0,72,0.00,,,0.19,0281,Weather View 32 v70,2013-04-01 19:48:00,
2013-04-01 12:53:00,61.2,52.1,30.12,NNW,331,0.0,10.0,72,0.00,,,0.19,0338,Weather View 32 v70,2013-04-01 19:53:00,
2013-04-01 12:58:00,61.5,52.4,30.12,West,276,2.0,10.0,72,0.00,,,0.19,0366,Weather View 32 v70,2013-04-01 19:58:00,
2013-04-01 13:03:00,61.2,51.7,30.12,West,277,0.0,10.0,71,0.00,,,0.19,0248,Weather View 32 v70,2013-04-01 20:03:00,
2013-04-01 13:08:00,61.2,51.7,30.12,NW,305,0.0,7.0,71,0.00,,,0.19,0294,Weather View 32 v70,2013-04-01 20:08:00,
2013-04-01 13:13:00,61.4,52.6,30.11,NW,305,0.0,7.0,73,0.00,,,0.19,0130,Weather View 32 v70,2013-04-01 20:13:00,
2013-04-01 13:18:00,60.6,51.5,30.12,West,266,0.0,7.0,72,0.00,,,0.19,0128,Weather View 32 v70,2013-04-01 20:18:00,
2013-04-01 13:23:00,59.9,51.6,30.11,NNE,29,0.0,7.0,74,0.00,,,0.19,0123,Weather View 32 v70,2013-04-01 20:23:00,
2013-04-01 13:29:00,59.2,51.3,30.11,NW,306,0.0,8.0,75,0.00,,,0.19,0183,Weather View 32 v70,2013-04-01 20:29:00,
2013-04-01 13:34:00,59.0,51.4,30.11,WNW,302,3.0,8.0,76,0.00,,,0.19,0227,Weather View 32 v70,2013-04-01 20:34:00,
2013-04-01 13:39:00,59.0,51.8,30.11,WNW,300,0.0,8.0,77,0.00,,,0.19,0192,Weather View 32 v70,2013-04-01 20:39:00,
2013-04-01 13:44:00,58.6,51.4,30.11,NW,311,0.0,8.0,77,0.00,,,0.19,0246,Weather View 32 v70,2013-04-01 20:44:00,
2013-04-01 13:49:00,59.0,52.5,30.11,NW,311,0.0,8.0,79,0.00,,,0.19,0202,Weather View 32 v70,2013-04-01 20:49:00,
2013-04-01 13:54:00,59.0,52.1,30.11,WSW,254,0.0,8.0,78,0.00,,,0.19,0338,Weather View 32 v70,2013-04-01 20:54:00,
2013-04-01 13:59:00,59.1,51.9,30.11,West,267,1.0,8.0,77,0.00,,,0.19,0360,Weather View 32 v70,2013-04-01 20:59:00,
2013-04-01 14:04:00,59.1,52.2,30.10,WNW,289,0.0,8.0,78,0.00,,,0.19,0236,Weather View 32 v70,2013-04-01 21:04:00,
2013-04-01 14:09:00,59.6,52.0,30.10,West,275,0.0,8.0,76,0.00,,,0.19,0534,Weather View 32 v70,2013-04-01 21:09:00,
2013-04-01 14:14:00,60.2,52.6,30.10,West,261,0.0,8.0,76,0.00,,,0.19,0308,Weather View 32 v70,2013-04-01 21:14:00,
2013-04-01 14:19:00,59.4,52.5,30.10,WNW,295,0.0,8.0,78,0.00,,,0.19,0230,Weather View 32 v70,2013-04-01 21:19:00,
2013-04-01 14:24:00,59.0,52.1,30.10,NNW,331,0.0,8.0,78,0.00,,,0.19,0327,Weather View 32 v70,2013-04-01 21:24:00,
2013-04-01 14:29:00,59.8,52.9,30.09,West,272,0.0,7.0,78,0.00,,,0.19,0271,Weather View 32 v70,2013-04-01 21:29:00,
2013-04-01 14:34:00,59.5,52.3,30.09,NNW,340,0.0,7.0,77,0.00,,,0.19,0292,Weather View 32 v70,2013-04-01 21:34:00,
2013-04-01 14:39:00,59.5,52.3,30.09,NW,317,0.0,7.0,77,0.00,,,0.19,0204,Weather View 32 v70,2013-04-01 21:39:00,
2013-04-01 14:44:00,59.1,51.9,30.09,NW,322,0.0,7.0,77,-0.19,,,0.00,0237,Weather View 32 v70,2013-04-01 21:44:00,
2013-04-01 14:49:00,59.5,52.3,30.09,West,268,0.0,7.0,77,-0.19,,,0.00,0135,Weather View 32 v70,2013-04-01 21:49:00,
2013-04-01 14:54:00,59.0,51.8,30.09,WNW,302,0.0,7.0,77,-0.19,,,0.00,0134,Weather View 32 v70,2013-04-01 21:54:00,
2013-04-01 14:59:00,59.0,51.8,30.09,WNW,302,0.0,6.0,77,-0.19,,,0.00,0102,Weather View 32 v70,2013-04-01 21:59:00,
2013-04-01 15:04:00,58.8,51.6,30.09,WNW,286,2.0,6.0,77,-0.19,,,0.00,0079,Weather View 32 v70,2013-04-01 22:04:00,
2013-04-01 15:09:00,59.0,52.1,30.08,NW,307,0.0,6.0,78,-0.19,,,0.00,0093,Weather View 32 v70,2013-04-01 22:09:00,
2013-04-01 15:14:00,58.9,51.7,30.08,NNW,344,0.0,6.0,77,-0.19,,,0.00,0079,Weather View 32 v70,2013-04-01 22:14:00,
2013-04-01 15:19:00,59.0,52.1,30.08,WNW,300,0.0,6.0,78,-0.19,,,0.00,0067,Weather View 32 v70,2013-04-01 22:19:00,
2013-04-01 15:24:00,59.0,52.1,30.08,WNW,300,0.0,6.0,78,-0.19,,,0.00,0069,Weather View 32 v70,2013-04-01 22:24:00,
2013-04-01 15:29:00,59.0,51.8,30.08,WNW,300,0.0,6.0,77,-0.19,,,0.00,0070,Weather View 32 v70,2013-04-01 22:29:00,
2013-04-01 15:34:00,59.0,52.1,30.08,NW,304,0.0,6.0,78,-0.19,,,0.00,0072,Weather View 32 v70,2013-04-01 22:34:00,
2013-04-01 15:39:00,58.6,51.7,30.08,WNW,286,0.0,6.0,78,-0.19,,,0.00,0079,Weather View 32 v70,2013-04-01 22:39:00,
2013-04-01 15:44:00,58.2,52.0,30.08,NNW,331,0.0,6.0,80,0.00,,,0.00,0079,Weather View 32 v70,2013-04-01 22:44:00,
2013-04-01 15:50:00,57.8,52.0,30.08,NNW,333,1.0,6.0,81,0.00,,,0.00,0060,Weather View 32 v70,2013-04-01 22:50:00,
2013-04-01 15:55:00,57.2,52.1,30.08,West,279,0.0,6.0,83,0.00,,,0.00,0058,Weather View 32 v70,2013-04-01 22:55:00,
2013-04-01 16:00:00,56.8,52.0,30.08,NW,311,0.0,6.0,84,0.00,,,0.00,0039,Weather View 32 v70,2013-04-01 23:00:00,
2013-04-01 16:05:00,56.4,51.9,30.08,WNW,299,0.0,6.0,85,0.00,,,0.00,0051,Weather View 32 v70,2013-04-01 23:05:00,
2013-04-01 16:10:00,56.3,51.8,30.08,WNW,296,0.0,6.0,85,0.00,,,0.00,0040,Weather View 32 v70,2013-04-01 23:10:00,
2013-04-01 16:15:00,56.2,51.7,30.08,NW,325,0.0,6.0,85,0.00,,,0.00,0028,Weather View 32 v70,2013-04-01 23:15:00,
2013-04-01 16:20:00,56.0,51.9,30.07,NW,309,0.0,6.0,86,0.00,,,0.00,0037,Weather View 32 v70,2013-04-01 23:20:00,
2013-04-01 16:25:00,55.9,51.8,30.08,WNW,294,0.0,6.0,86,0.00,,,0.00,0033,Weather View 32 v70,2013-04-01 23:25:00,
2013-04-01 16:30:00,55.9,51.8,30.08,WNW,299,0.0,6.0,86,0.00,,,0.00,0028,Weather View 32 v70,2013-04-01 23:30:00,
2013-04-01 16:35:00,55.8,51.7,30.08,WNW,300,0.0,6.0,86,0.00,,,0.00,0025,Weather View 32 v70,2013-04-01 23:35:00,
2013-04-01 16:40:00,56.0,51.9,30.07,WNW,302,0.0,6.0,86,0.00,,,0.00,0035,Weather View 32 v70,2013-04-01 23:40:00,
2013-04-01 16:45:00,55.9,51.8,30.07,WNW,302,0.0,6.0,86,0.00,,,0.00,0021,Weather View 32 v70,2013-04-01 23:45:00,
2013-04-01 16:50:00,55.9,51.8,30.07,WNW,302,0.0,6.0,86,0.00,,,0.00,0023,Weather View 32 v70,2013-04-01 23:50:00,
2013-04-01 16:55:00,56.0,51.9,30.07,WNW,303,0.0,6.0,86,0.00,,,0.00,0023,Weather View 32 v70,2013-04-01 23:55:00,
2013-04-01 17:00:00,56.1,51.6,30.07,WNW,303,0.0,6.0,85,0.00,,,0.00,0021,Weather View 32 v70,2013-04-02 00:00:00,
2013-04-01 17:05:00,56.2,51.4,30.07,West,279,0.0,6.0,84,0.00,,,0.00,0021,Weather View 32 v70,2013-04-02 00:05:00,
2013-04-01 17:10:00,56.2,51.4,30.07,West,279,0.0,6.0,84,0.00,,,0.00,0019,Weather View 32 v70,2013-04-02 00:10:00,
2013-04-01 17:15:00,56.3,51.5,30.07,West,279,0.0,6.0,84,0.00,,,0.00,0021,Weather View 32 v70,2013-04-02 00:15:00,
2013-04-01 17:20:00,56.2,51.1,30.07,West,279,0.0,2.0,83,0.00,,,0.00,0021,Weather View 32 v70,2013-04-02 00:20:00,
2013-04-01 17:25:00,56.2,51.1,30.07,West,279,0.0,2.0,83,0.00,,,0.00,0021,Weather View 32 v70,2013-04-02 00:25:00,
2013-04-01 17:30:00,56.0,50.6,30.07,West,279,1.0,2.0,82,0.00,,,0.00,0018,Weather View 32 v70,2013-04-02 00:30:00,
2013-04-01 17:35:00,55.9,50.8,30.07,West,279,0.0,2.0,83,0.00,,,0.00,0019,Weather View 32 v70,2013-04-02 00:35:00,
2013-04-01 17:40:00,55.9,50.8,30.07,NNW,335,0.0,2.0,83,0.00,,,0.00,0019,Weather View 32 v70,2013-04-02 00:40:00,
2013-04-01 17:45:00,55.8,51.0,30.07,NNW,331,0.0,2.0,84,0.00,,,0.00,0016,Weather View 32 v70,2013-04-02 00:45:00,
2013-04-01 17:50:00,55.7,50.9,30.07,NNW,331,0.0,2.0,84,0.00,,,0.00,0012,Weather View 32 v70,2013-04-02 00:50:00,
2013-04-01 17:55:00,55.7,50.9,30.07,NNW,331,0.0,2.0,84,0.00,,,0.00,0014,Weather View 32 v70,2013-04-02 00:55:00,
2013-04-01 18:00:00,55.5,51.1,30.07,NNW,331,0.0,2.0,85,0.00,,,0.00,0014,Weather View 32 v70,2013-04-02 01:00:00,
2013-04-01 18:05:00,55.4,51.0,30.07,NNW,331,0.0,2.0,85,0.00,,,0.00,0014,Weather View 32 v70,2013-04-02 01:05:00,
2013-04-01 18:10:00,55.4,51.0,30.07,NNW,331,0.0,2.0,85,0.00,,,0.00,0014,Weather View 32 v70,2013-04-02 01:10:00,
2013-04-01 18:15:00,55.4,51.0,30.07,NNW,331,0.0,2.0,85,0.00,,,0.00,0012,Weather View 32 v70,2013-04-02 01:15:00,
2013-04-01 18:20:00,55.4,51.0,30.07,NNW,331,0.0,2.0,85,0.00,,,0.00,0011,Weather View 32 v70,2013-04-02 01:20:00,
2013-04-01 18:25:00,55.3,50.9,30.07,NNW,331,0.0,1.0,85,0.00,,,0.00,0011,Weather View 32 v70,2013-04-02 01:25:00,
2013-04-01 18:30:00,55.4,51.0,30.07,NNW,331,0.0,1.0,85,0.00,,,0.00,0011,Weather View 32 v70,2013-04-02 01:30:00,
2013-04-01 18:35:00,55.4,51.0,30.07,NNW,331,0.0,1.0,85,0.00,,,0.00,0007,Weather View 32 v70,2013-04-02 01:35:00,
2013-04-01 18:40:00,55.4,51.0,30.07,NNW,331,0.0,1.0,85,0.00,,,0.00,0007,Weather View 32 v70,2013-04-02 01:40:00,
2013-04-01 18:45:00,55.3,50.9,30.07,NNW,331,0.0,1.0,85,0.00,,,0.00,0005,Weather View 32 v70,2013-04-02 01:45:00,
2013-04-01 18:50:00,55.3,50.5,30.08,NNW,331,0.0,1.0,84,0.00,,,0.00,0007,Weather View 32 v70,2013-04-02 01:50:00,
2013-04-01 18:55:00,55.3,50.5,30.07,NNW,331,0.0,1.0,84,0.00,,,0.00,0005,Weather View 32 v70,2013-04-02 01:55:00,
2013-04-01 19:00:00,55.3,50.5,30.07,NNW,331,0.0,1.0,84,0.00,,,0.00,0000,Weather View 32 v70,2013-04-02 02:00:00,
2013-04-01 19:05:00,55.3,50.5,30.08,NNW,331,0.0,1.0,84,0.00,,,0.00,0000,Weather View 32 v70,2013-04-02 02:05:00,
2013-04-01 19:10:00,55.3,50.5,30.07,NNW,331,0.0,1.0,84,0.00,,,0.00,0000,Weather View 32 v70,2013-04-02 02:10:00,
2013-04-01 19:15:00,55.2,50.4,30.07,NNW,331,0.0,1.0,84,0.00,,,0.00,0000,Weather View 32 v70,2013-04-02 02:15:00,
2013-04-01 19:20:00,55.1,50.3,30.07,NNW,331,0.0,1.0,84,0.00,,,0.00,0000,Weather View 32 v70,2013-04-02 02:20:00,
2013-04-01 19:25:00,55.1,50.3,30.07,ENE,59,0.0,1.0,84,0.00,,,0.00,0000,Weather View 32 v70,2013-04-02 02:25:00,
2013-04-01 19:30:00,55.0,50.2,30.07,SE,126,1.0,1.0,84,0.00,,,0.00,0000,Weather View 32 v70,2013-04-02 02:30:00,
2013-04-01 19:35:00,54.9,50.1,30.07,SE,126,0.0,1.0,84,0.00,,,0.00,0000,Weather View 32 v70,2013-04-02 02:35:00,
2013-04-01 19:40:00,55.0,50.2,30.06,SE,126,0.0,1.0,84,0.00,,,0.00,0000,Weather View 32 v70,2013-04-02 02:40:00,
2013-04-01 19:45:00,55.0,50.6,30.06,SE,126,1.0,1.0,85,0.00,,,0.00,0000,Weather View 32 v70,2013-04-02 02:45:00,
2013-04-01 19:50:00,55.1,50.7,30.06,SE,126,0.0,2.0,85,0.00,,,0.00,0000,Weather View 32 v70,2013-04-02 02:50:00,
2013-04-01 19:55:00,55.0,50.6,30.06,SE,126,0.0,2.0,85,0.00,,,0.00,0000,Weather View 32 v70,2013-04-02 02:55:00,
2013-04-01 20:00:00,55.0,50.9,30.06,SE,126,0.0,2.0,86,0.00,,,0.00,0000,Weather View 32 v70,2013-04-02 03:00:00,
2013-04-01 20:05:00,55.0,50.9,30.06,SE,126,0.0,2.0,86,0.00,,,0.00,0000,Weather View 32 v70,2013-04-02 03:05:00,
2013-04-01 20:10:00,55.1,51.0,30.05,SE,126,0.0,2.0,86,0.00,,,0.00,0000,Weather View 32 v70,2013-04-02 03:10:00,
2013-04-01 20:15:00,55.0,50.9,30.06,SE,126,0.0,2.0,86,0.00,,,0.00,0000,Weather View 32 v70,2013-04-02 03:15:00,
2013-04-01 20:20:00,54.8,50.7,30.06,SE,126,0.0,2.0,86,0.00,,,0.00,0000,Weather View 32 v70,2013-04-02 03:20:00,
2013-04-01 20:25:00,54.5,50.4,30.06,SE,126,0.0,2.0,86,0.00,,,0.00,0000,Weather View 32 v70,2013-04-02 03:25:00,
2013-04-01 20:30:00,54.4,50.3,30.05,SE,126,0.0,2.0,86,0.00,,,0.00,0000,Weather View 32 v70,2013-04-02 03:30:00,
2013-04-01 20:35:00,54.2,50.1,30.05,SE,126,0.0,2.0,86,0.00,,,0.00,0000,Weather View 32 v70,2013-04-02 03:35:00,
2013-04-01 20:40:00,53.9,50.1,30.04,SE,126,0.0,2.0,87,0.00,,,0.00,0000,Weather View 32 v70,2013-04-02 03:40:00,
2013-04-01 20:45:00,53.7,49.9,30.04,SE,126,0.0,2.0,87,0.00,,,0.00,0000,Weather View 32 v70,2013-04-02 03:45:00,
2013-04-01 20:50:00,53.3,49.5,30.05,SE,126,0.0,1.0,87,0.00,,,0.00,0000,Weather View 32 v70,2013-04-02 03:50:00,
2013-04-01 20:55:00,53.3,49.8,30.05,SE,126,0.0,0.0,88,0.00,,,0.00,0000,Weather View 32 v70,2013-04-02 03:55:00,
2013-04-01 21:00:00,53.3,49.8,30.05,SE,126,0.0,1.0,88,0.00,,,0.00,0000,Weather View 32 v70,2013-04-02 04:00:00,
2013-04-01 21:05:00,53.5,50.3,30.05,SE,126,0.0,1.0,89,0.00,,,0.00,0000,Weather View 32 v70,2013-04-02 04:05:00,
2013-04-01 21:10:00,53.7,50.2,30.05,SE,126,0.0,1.0,88,0.00,,,0.00,0000,Weather View 32 v70,2013-04-02 04:10:00,
2013-04-01 21:15:00,53.6,50.1,30.05,SE,126,0.0,1.0,88,0.00,,,0.00,0000,Weather View 32 v70,2013-04-02 04:15:00,
2013-04-01 21:20:00,53.6,50.1,30.05,SE,126,0.0,1.0,88,0.00,,,0.00,0000,Weather View 32 v70,2013-04-02 04:20:00,
2013-04-01 21:25:00,53.8,50.3,30.05,SE,126,0.0,1.0,88,0.00,,,0.00,0000,Weather View 32 v70,2013-04-02 04:25:00,
2013-04-01 21:30:00,53.9,50.4,30.05,SE,126,0.0,1.0,88,0.00,,,0.00,0000,Weather View 32 v70,2013-04-02 04:30:00,
2013-04-01 21:35:00,54.0,50.5,30.05,SE,126,0.0,1.0,88,0.00,,,0.00,0000,Weather View 32 v70,2013-04-02 04:35:00,
2013-04-01 21:40:00,54.2,50.7,30.05,SE,126,0.0,1.0,88,0.00,,,0.00,0000,Weather View 32 v70,2013-04-02 04:40:00,
2013-04-01 21:45:00,54.2,50.7,30.05,SE,126,0.0,1.0,88,0.00,,,0.00,0000,Weather View 32 v70,2013-04-02 04:45:00,
2013-04-01 21:50:00,54.2,50.4,30.05,SE,126,0.0,1.0,87,0.00,,,0.00,0000,Weather View 32 v70,2013-04-02 04:50:00,
2013-04-01 21:55:00,54.2,50.4,30.06,SE,126,0.0,1.0,87,0.00,,,0.00,0000,Weather View 32 v70,2013-04-02 04:55:00,
2013-04-01 22:00:00,54.0,50.2,30.06,SE,126,0.0,0.0,87,0.00,,,0.00,0000,Weather View 32 v70,2013-04-02 05:00:00,
2013-04-01 22:05:00,53.6,49.8,30.06,SE,126,0.0,0.0,87,0.00,,,0.00,0000,Weather View 32 v70,2013-04-02 05:05:00,
2013-04-01 22:10:00,53.3,49.8,30.06,SE,126,0.0,0.0,88,0.00,,,0.00,0000,Weather View 32 v70,2013-04-02 05:10:00,
2013-04-01 22:15:00,53.0,49.5,30.06,SE,126,0.0,0.0,88,0.00,,,0.00,0000,Weather View 32 v70,2013-04-02 05:15:00,
2013-04-01 22:20:00,52.8,49.6,30.06,SE,126,0.0,0.0,89,0.00,,,0.00,0000,Weather View 32 v70,2013-04-02 05:20:00,
2013-04-01 22:25:00,52.5,49.3,30.06,SE,126,0.0,0.0,89,0.00,,,0.00,0000,Weather View 32 v70,2013-04-02 05:25:00,
2013-04-01 22:30:00,52.2,49.0,30.06,SE,126,0.0,0.0,89,0.00,,,0.00,0000,Weather View 32 v70,2013-04-02 05:30:00,
2013-04-01 22:35:00,52.0,49.2,30.06,SE,126,0.0,0.0,90,0.00,,,0.00,0000,Weather View 32 v70,2013-04-02 05:35:00,
2013-04-01 22:40:00,51.8,49.0,30.05,SE,126,0.0,0.0,90,0.00,,,0.00,0000,Weather View 32 v70,2013-04-02 05:40:00,
2013-04-01 22:45:00,51.5,48.7,30.05,SE,126,0.0,0.0,90,0.00,,,0.00,0000,Weather View 32 v70,2013-04-02 05:45:00,
2013-04-01 22:50:00,51.1,48.3,30.05,SE,126,0.0,0.0,90,0.00,,,0.00,0000,Weather View 32 v70,2013-04-02 05:50:00,
2013-04-01 22:55:00,50.8,48.0,30.05,SE,126,0.0,0.0,90,0.00,,,0.00,0000,Weather View 32 v70,2013-04-02 05:55:00,
2013-04-01 23:00:00,50.9,48.4,30.05,SE,126,0.0,0.0,91,0.00,,,0.00,0000,Weather View 32 v70,2013-04-02 06:00:00,
2013-04-01 23:05:00,51.0,48.5,30.05,SE,126,0.0,0.0,91,0.00,,,0.00,0000,Weather View 32 v70,2013-04-02 06:05:00,
2013-04-01 23:10:00,50.9,48.4,30.05,SE,126,0.0,0.0,91,0.00,,,0.00,0000,Weather View 32 v70,2013-04-02 06:10:00,
2013-04-01 23:15:00,50.7,48.2,30.05,SE,126,0.0,0.0,91,0.00,,,0.00,0000,Weather View 32 v70,2013-04-02 06:15:00,
2013-04-01 23:20:00,50.8,48.3,30.05,SE,126,0.0,0.0,91,0.00,,,0.00,0000,Weather View 32 v70,2013-04-02 06:20:00,
2013-04-01 23:25:00,50.9,48.4,30.05,SE,126,0.0,0.0,91,0.00,,,0.00,0000,Weather View 32 v70,2013-04-02 06:25:00,
2013-04-01 23:30:00,50.9,48.4,30.05,SE,126,0.0,0.0,91,0.00,,,0.00,0000,Weather View 32 v70,2013-04-02 06:30:00,
2013-04-01 23:35:00,50.8,48.3,30.05,SE,126,0.0,0.0,91,0.00,,,0.00,0000,Weather View 32 v70,2013-04-02 06:35:00,
2013-04-01 23:40:00,51.0,48.5,30.05,SE,126,0.0,0.0,91,0.00,,,0.00,0000,Weather View 32 v70,2013-04-02 06:40:00,
2013-04-01 23:45:00,50.8,48.3,30.05,SE,126,0.0,0.0,91,0.00,,,0.00,0000,Weather View 32 v70,2013-04-02 06:45:00,
2013-04-01 23:54:00,50.5,48.0,30.05,SE,126,0.0,0.0,91,0.00,,,0.00,0000,Weather View 32 v70,2013-04-02 06:54:00,
2013-04-01 23:59:00,50.5,48.0,30.05,SE,126,0.0,0.0,91,0.00,,,0.00,0000,Weather View 32 v70,2013-04-02 06:59:00,